This demonstration page uses our WeatherBlox Daily Observations layout. Learn more.

Left ArrowRight Arrow

44.8408, -93.29828

Hourly Observations for April 6, 2022

Temp ( °F °C ) Dew Point ( °F °C ) Humidity (%) Winds ( mph kmh ) Pressure ( in mb ) Visibility ( mi km ) Precip ( " mm )
12:00 am 00:00 Cloudy with Light Rain 39 3.9 36 2.2 89 89 SW 16 26 29.31 993 10 16 0.00 0.00
12:42 am 00:42 Cloudy with Light Rain 39 3.9 35 1.7 86 86 SW 16 26 29.30 992 10 16 0.00 0.00
12:53 am 00:53 Cloudy with Light Rain 38 3.3 35 1.7 89 89 SW 13 20 29.28 992 10 16 0.00 0.00
1:42 am 01:42 Cloudy 39 3.9 36 2.2 89 89 SSW 12 19 29.28 992 10 16 0.00 0.00
1:53 am 01:53 Cloudy 39 3.9 36 2.2 89 89 SSW 12 19 29.26 991 10 16 0.00 0.00
2:53 am 02:53 Cloudy with Light Rain 40 4.4 36 2.2 86 86 SSW 12 19 29.22 989 8 13 0.01 0.25
3:13 am 03:13 Cloudy with Light Rain 39 3.9 36 2.2 89 89 S 14 22 29.22 990 9 14 0.01 0.25
3:29 am 03:29 Cloudy with Light Rain 40 4.4 36 2.2 86 86 SSW 14 22 29.21 989 10 16 0.02 0.51
3:53 am 03:53 Cloudy with Light Rain 40 4.4 36 2.2 86 86 S 15 24 29.18 988 7 11 0.02 0.51
4:53 am 04:53 Cloudy with Light Rain 35 1.7 32 0 89 89 SW 17 28 29.17 988 6 10 0.08 2.03
5:28 am 05:28 Cloudy with Light Rain/Snow 35 1.7 32 0 89 89 SW 15 24 29.18 988 7 11 0.01 0.25
5:53 am 05:53 Cloudy with Light Rain/Snow 33 0.6 31 -0.6 92 92 SW 10 17 29.16 987 4 6 0.03 0.76
6:02 am 06:02 Cloudy with Light Rain/Snow 33 0.6 31 -0.6 92 92 SSW 13 20 29.17 988 3 5 0.01 0.25
6:10 am 06:10 Cloudy with Light Snow 33 0.6 31 -0.6 92 92 SSW 14 22 29.17 988 2 3 0.02 0.51
6:20 am 06:20 Cloudy with Light Snow 33 0.6 31 -0.6 92 92 SSW 12 19 29.17 988 3 5 0.03 0.76
6:53 am 06:53 Cloudy with Light Snow 33 0.6 31 -0.6 92 92 SW 16 26 29.14 987 4 6 0.04 1.02
7:24 am 07:24 Cloudy with Drizzle 33 0.6 31 -0.6 92 92 SW 15 24 29.17 988 7 11 0.01 0.25
7:53 am 07:53 Cloudy 34 1.1 32 0 92 92 WSW 13 20 29.16 987 10 16 0.01 0.25
8:53 am 08:53 Cloudy 34 1.1 32 0 92 92 W 14 22 29.17 988 10 16 0.00 0.00
9:53 am 09:53 Cloudy with Light Rain 35 1.7 33 0.6 93 93 W 15 24 29.18 988 10 16 0.00 0.00
10:11 am 10:11 Cloudy with Light Rain 35 1.7 33 0.6 93 93 W 17 28 29.21 989 10 16 0.00 0.00
10:53 am 10:53 Cloudy 36 2.2 33 0.6 89 89 W 20 31 29.21 989 10 16 0.01 0.25
11:35 am 11:35 Cloudy with Drizzle 37 2.8 34 1.1 89 89 W 17 28 29.24 990 8 13 0.00 0.00
11:53 am 11:53 Cloudy 37 2.8 35 1.7 93 93 W 15 24 29.23 990 9 14 0.00 0.00
12:53 pm 12:53 Cloudy 38 3.3 34 1.1 86 86 W 21 33 29.26 991 10 16 0.00 0.00
1:53 pm 13:53 Cloudy 39 3.9 34 1.1 82 82 WNW 18 30 29.29 992 10 16 0.00 0.00
2:01 pm 14:01 Cloudy 40 4.4 34 1.1 79 79 WNW 16 26 29.31 993 10 16 0.00 0.00
2:31 pm 14:31 Cloudy 40 4.4 33 0.6 77 77 NW 22 35 29.32 993 10 16 0.00 0.00
2:53 pm 14:53 Cloudy with Light Rain 39 3.9 35 1.7 86 86 WNW 20 31 29.33 993 9 14 0.00 0.00
3:53 pm 15:53 Cloudy with Light Rain 38 3.3 34 1.1 86 86 WNW 18 30 29.36 994 10 16 0.01 0.25
4:53 pm 16:53 Cloudy with Light Rain 39 3.9 34 1.1 82 82 NW 22 35 29.39 995 10 16 0.01 0.25
5:53 pm 17:53 Cloudy with Light Rain 38 3.3 34 1.1 86 86 WNW 20 31 29.42 996 10 16 0.00 0.00
6:53 pm 18:53 Cloudy with Light Rain 37 2.8 33 0.6 86 86 WNW 17 28 29.44 997 10 16 0.00 0.00
7:53 pm 19:53 Cloudy with Light Rain 36 2.2 32 0 86 86 WNW 18 30 29.47 998 10 16 0.00 0.00
8:53 pm 20:53 Cloudy 36 2.2 32 0 86 86 WNW 18 30 29.49 999 10 16 0.00 0.00
9:53 pm 21:53 Cloudy 35 1.7 31 -0.6 85 85 WNW 17 28 29.49 999 10 16 0.00 0.00
10:53 pm 22:53 Cloudy 34 1.1 31 -0.6 89 89 WNW 15 24 29.49 999 10 16 0.00 0.00
11:53 pm 23:53 Cloudy 34 1.1 31 -0.6 89 89 WNW 14 22 29.48 998 10 16 0.00 0.00

Powered by AerisWeather